Zurück zum Katalog

EUROPA CLIPPER

AktivWissenschaftHCO
NORAD 61507·PAYLOAD·🇺🇸 United States

Gestartet Oct 14, 2024 von Cape Canaveral Space Force Station

Loading…

TLE

VeraltetSource: Space-Track

Epoche: Oct 14, 2024, 16:13 UTC

1 61507U 24182A   24288.67632810  .00000840 -26562-5  00000-0 0  9992
2 61507  31.9400  67.0176 0018900  60.7600  70.5300 16.38814738    06

Verfolge EUROPA CLIPPER in Echtzeit mit AllMySat

Download on the App Store